• In Russia
  • List of Countries
  • For 7 days
  • Water Temperature
  • Satellite Maps
  • Weather Map
  • Weather Widgets
  • user-avatar
    Login

    Hourly Weather Godzinowice

    Today, 27 May, Monday

    Time Temperature Precipitation Wind Pressure Humidity
    00:00 +14°C° 0 mm 2 mps 746 mmHg 87%
    01:00 +13°C° 0 mm 3 mps 746 mmHg 88%
    02:00 +13°C° 0 mm 3 mps 745 mmHg 89%
    03:00 +12°C° 0 mm 3 mps 745 mmHg 89%
    04:00 +12°C° 0 mm 3 mps 745 mmHg 89%
    05:00 +14°C° 0 mm 3 mps 745 mmHg 84%
    06:00 +17°C° 0 mm 4 mps 745 mmHg 79%
    07:00 +19°C° 0 mm 4 mps 745 mmHg 75%
    08:00 +20°C° 0 mm 4 mps 745 mmHg 69%
    09:00 +22°C° 0 mm 4 mps 745 mmHg 64%
    10:00 +23°C° 0 mm 4 mps 745 mmHg 58%
    11:00 +25°C° 0.1 mm 3 mps 744 mmHg 57%
    12:00 +25°C° 0.1 mm 3 mps 744 mmHg 55%
    13:00 +26°C° 0.1 mm 2 mps 744 mmHg 54%
    14:00 +25°C° 0.4 mm 2 mps 743 mmHg 56%
    15:00 +25°C° 0.4 mm 2 mps 743 mmHg 58%
    16:00 +25°C° 0.4 mm 2 mps 743 mmHg 61%
    17:00 +24°C° 0.4 mm 2 mps 743 mmHg 67%
    18:00 +21°C° 0.4 mm 2 mps 742 mmHg 74%
    19:00 +20°C° 0.4 mm 2 mps 742 mmHg 80%
    20:00 +19°C° 0 mm 2 mps 742 mmHg 83%
    21:00 +18°C° 0 mm 2 mps 742 mmHg 86%
    22:00 +17°C° 0 mm 2 mps 742 mmHg 88%
    23:00 +17°C° 0.7 mm 2 mps 741 mmHg 90%

    Tomorrow, 28 May, Tuesday

    Time Temperature Precipitation Wind Pressure Humidity
    00:00 +17°C° 0.7 mm 2 mps 741 mmHg 92%
    01:00 +17°C° 0.7 mm 2 mps 741 mmHg 94%
    02:00 +16°C° 2 mm 2 mps 740 mmHg 94%
    03:00 +16°C° 2 mm 2 mps 740 mmHg 94%
    04:00 +16°C° 2 mm 2 mps 740 mmHg 95%
    05:00 +16°C° 0.1 mm 3 mps 739 mmHg 90%
    06:00 +17°C° 0.1 mm 3 mps 739 mmHg 86%
    07:00 +17°C° 0.1 mm 3 mps 739 mmHg 81%
    08:00 +18°C° 0.1 mm 3 mps 739 mmHg 81%
    09:00 +18°C° 0.1 mm 3 mps 740 mmHg 80%
    10:00 +18°C° 0.1 mm 2 mps 740 mmHg 79%
    11:00 +18°C° 0.1 mm 3 mps 740 mmHg 80%
    12:00 +18°C° 0.1 mm 3 mps 740 mmHg 81%
    13:00 +19°C° 0.1 mm 3 mps 740 mmHg 81%
    14:00 +16°C° 0.3 mm 5 mps 740 mmHg 85%
    15:00 +15°C° 0.3 mm 6 mps 740 mmHg 89%
    16:00 +14°C° 0.3 mm 7 mps 740 mmHg 92%
    17:00 +12°C° 0.4 mm 7 mps 741 mmHg 92%
    18:00 +11°C° 0.4 mm 7 mps 741 mmHg 92%
    19:00 +11°C° 0.4 mm 7 mps 742 mmHg 92%
    20:00 +11°C° 0.4 mm 6 mps 742 mmHg 93%
    21:00 +10°C° 0.4 mm 6 mps 743 mmHg 93%
    22:00 +10°C° 0.4 mm 5 mps 744 mmHg 94%
    23:00 +10°C° 0.1 mm 5 mps 744 mmHg 93%

    Day after tomorrow, 29 May, Wednesday

    Time Temperature Precipitation Wind Pressure Humidity
    00:00 +9°C° 0.1 mm 5 mps 745 mmHg 92%
    01:00 +8°C° 0.1 mm 5 mps 745 mmHg 91%
    02:00 +8°C° 0 mm 4 mps 746 mmHg 91%
    03:00 +7°C° 0 mm 4 mps 746 mmHg 90%
    04:00 +7°C° 0 mm 4 mps 747 mmHg 90%
    05:00 +7°C° 0 mm 4 mps 747 mmHg 87%
    06:00 +8°C° 0 mm 4 mps 748 mmHg 85%
    07:00 +8°C° 0 mm 4 mps 749 mmHg 82%
    08:00 +11°C° 0 mm 4 mps 749 mmHg 77%
    09:00 +12°C° 0 mm 4 mps 749 mmHg 72%
    10:00 +13°C° 0 mm 4 mps 750 mmHg 67%
    11:00 +14°C° 0 mm 4 mps 750 mmHg 65%
    12:00 +15°C° 0 mm 4 mps 750 mmHg 63%
    13:00 +15°C° 0 mm 4 mps 750 mmHg 61%
    14:00 +17°C° 0 mm 4 mps 750 mmHg 62%
    15:00 +17°C° 0 mm 4 mps 750 mmHg 62%
    16:00 +17°C° 0 mm 4 mps 750 mmHg 62%
    17:00 +16°C° 0 mm 3 mps 750 mmHg 67%
    18:00 +16°C° 0 mm 3 mps 750 mmHg 72%
    19:00 +15°C° 0 mm 2 mps 750 mmHg 76%
    20:00 +14°C° 0 mm 2 mps 751 mmHg 77%
    21:00 +13°C° 0 mm 2 mps 751 mmHg 77%
    22:00 +12°C° 0 mm 2 mps 751 mmHg 78%
    23:00 +11°C° 0 mm 1 mps 751 mmHg 80%

    30 May, Thursday

    Time Temperature Precipitation Wind Pressure Humidity
    00:00 +10°C° 0 mm 1 mps 752 mmHg 83%
    01:00 +10°C° 0 mm 1 mps 752 mmHg 85%
    02:00 +9°C° 0 mm 1 mps 752 mmHg 86%
    03:00 +9°C° 0 mm 1 mps 752 mmHg 87%
    04:00 +8°C° 0 mm 1 mps 752 mmHg 87%
    05:00 +10°C° 0 mm 1 mps 752 mmHg 83%
    06:00 +12°C° 0 mm 1 mps 752 mmHg 79%
    07:00 +12°C° 0 mm 0 mps 753 mmHg 74%
    08:00 +15°C° 0 mm 1 mps 753 mmHg 70%
    09:00 +16°C° 0 mm 1 mps 753 mmHg 65%
    10:00 +19°C° 0 mm 1 mps 753 mmHg 60%
    11:00 +19°C° 0 mm 1 mps 752 mmHg 57%
    12:00 +20°C° 0 mm 1 mps 752 mmHg 54%
    13:00 +21°C° 0 mm 1 mps 752 mmHg 51%
    14:00 +20°C° 0 mm 2 mps 752 mmHg 54%
    15:00 +20°C° 0 mm 2 mps 752 mmHg 56%
    16:00 +20°C° 0 mm 2 mps 751 mmHg 58%
    17:00 +19°C° 0 mm 2 mps 751 mmHg 65%
    18:00 +17°C° 0 mm 2 mps 751 mmHg 71%
    19:00 +16°C° 0 mm 2 mps 751 mmHg 77%
    20:00 +15°C° 0 mm 2 mps 752 mmHg 78%
    21:00 +14°C° 0 mm 2 mps 752 mmHg 78%
    22:00 +13°C° 0 mm 2 mps 752 mmHg 79%
    23:00 +13°C° 0 mm 2 mps 752 mmHg 81%

    31 May, Friday

    Time Temperature Precipitation Wind Pressure Humidity
    00:00 +12°C° 0 mm 2 mps 752 mmHg 84%
    01:00 +12°C° 0 mm 2 mps 752 mmHg 86%
    02:00 +12°C° 0 mm 2 mps 751 mmHg 88%
    03:00 +11°C° 0 mm 1 mps 751 mmHg 90%
    04:00 +11°C° 0 mm 1 mps 751 mmHg 92%
    05:00 +13°C° 0 mm 1 mps 751 mmHg 88%
    06:00 +15°C° 0 mm 2 mps 751 mmHg 84%
    07:00 +17°C° 0 mm 2 mps 751 mmHg 80%
    08:00 +18°C° 0 mm 2 mps 751 mmHg 75%
    09:00 +20°C° 0 mm 2 mps 750 mmHg 71%
    10:00 +21°C° 0 mm 2 mps 750 mmHg 66%
    11:00 +21°C° 0.9 mm 3 mps 750 mmHg 68%
    12:00 +21°C° 0.9 mm 4 mps 750 mmHg 70%
    13:00 +22°C° 0.9 mm 4 mps 749 mmHg 72%
    14:00 +21°C° 1.3 mm 5 mps 749 mmHg 75%
    15:00 +20°C° 1.3 mm 5 mps 749 mmHg 78%
    16:00 +20°C° 1.3 mm 6 mps 749 mmHg 81%
    17:00 +19°C° 0.3 mm 6 mps 749 mmHg 84%
    18:00 +17°C° 0.3 mm 5 mps 750 mmHg 87%
    19:00 +16°C° 0.3 mm 5 mps 750 mmHg 91%
    20:00 +15°C° 0 mm 6 mps 750 mmHg 91%
    21:00 +14°C° 0 mm 6 mps 751 mmHg 92%
    22:00 +12°C° 0 mm 7 mps 752 mmHg 92%
    23:00 +11°C° 0 mm 7 mps 752 mmHg 92%

    1 June, Saturday

    Time Temperature Precipitation Wind Pressure Humidity
    00:00 +10°C° 0 mm 7 mps 752 mmHg 91%
    01:00 +9°C° 0 mm 7 mps 753 mmHg 91%
    02:00 +9°C° 0 mm 7 mps 753 mmHg 90%
    03:00 +9°C° 0 mm 7 mps 753 mmHg 89%
    04:00 +8°C° 0 mm 6 mps 754 mmHg 88%
    05:00 +8°C° 0 mm 7 mps 754 mmHg 85%
    06:00 +9°C° 0 mm 7 mps 754 mmHg 82%
    07:00 +9°C° 0 mm 7 mps 755 mmHg 80%
    08:00 +10°C° 0 mm 7 mps 755 mmHg 73%
    09:00 +12°C° 0 mm 7 mps 755 mmHg 66%
    10:00 +15°C° 0 mm 7 mps 756 mmHg 60%
    11:00 +15°C° 0 mm 7 mps 755 mmHg 59%
    12:00 +16°C° 0 mm 7 mps 755 mmHg 58%
    13:00 +17°C° 0 mm 7 mps 755 mmHg 57%
    14:00 +17°C° 0 mm 7 mps 755 mmHg 57%
    15:00 +17°C° 0 mm 7 mps 755 mmHg 58%
    16:00 +17°C° 0 mm 7 mps 755 mmHg 58%
    17:00 +16°C° 0 mm 6 mps 755 mmHg 63%
    18:00 +16°C° 0 mm 5 mps 756 mmHg 67%
    19:00 +15°C° 0 mm 4 mps 756 mmHg 72%
    20:00 +13°C° 0 mm 4 mps 756 mmHg 75%
    21:00 +12°C° 0 mm 3 mps 757 mmHg 79%
    22:00 +10°C° 0 mm 3 mps 757 mmHg 82%
    23:00 +9°C° 0 mm 3 mps 757 mmHg 82%
    Show more